Rochelle, IL

11:06 PM CDT on June 24, 2017 (GMT -0500)
Rochelle

Weather History for KRPJ - September, 2012

Change the Weather History Date:

Tuesday, September 25, 2012

  Actual Average (KRFD) Record (KRFD)
Temperature  
Mean Temperature 63 °F -  
Max Temperature 83 °F 70 °F 95 °F (1920)
Min Temperature 44 °F 47 °F 27 °F (1942)
Degree Days  
Heating Degree Days 2    
Growing Degree Days 13 (Base 50)    
Moisture  
Dew Point 48 °F    
Average Humidity 63    
Maximum Humidity 90    
Minimum Humidity 30    
Precipitation  
Precipitation 0.00 in - - ()
Sea Level Pressure  
Sea Level Pressure 29.86 in    
Wind  
Wind Speed 4 mph (SSW)    
Max Wind Speed 13 mph    
Max Gust Speed 16 mph    
Visibility 10 miles    
Events      
Averages and records for this station are not official NWS values.
T = Trace of Precipitation, MM = Missing Value Source: NWS Daily Summary

Daily Weather History Graph

Daily Weather History Graph

Search for Another Location

Airport or City:

Trip Planner

Search our weather history database for the weather conditions in past years. The results will help you decide how hot, cold, wet, or windy it might be!

Date:

Astronomy

Sep. 25, 2012 Rise Set
Actual Time 6:47 AM CDT 6:47 PM CDT
Civil Twilight 6:19 AM CDT 7:15 PM CDT
Nautical Twilight 5:47 AM CDT 7:47 PM CDT
Astronomical Twilight 5:14 AM CDT 8:20 PM CDT
Moon 4:15 PM CDT 2:05 AM CDT
Length of Visible Light 12h 55m
Length of Day
12h 00m
Waxing Gibbous, 80% of the Moon is Illuminated
Sep 25
Waxing Gibbous
Sep 29
Full
Oct 8
Last Quarter
Oct 15
New
Oct 21
First Quarter

Hourly Weather History & Observations

Time (CDT) Temp. Windchill Dew Point Humidity Pressure Visibility Wind Dir Wind Speed Gust Speed Precip Events Conditions
12:15 AM 47.3 °F - 38.7 °F 72% 29.91 in 10.0 mi South 5.8 mph - N/A   Clear
12:35 AM 47.5 °F - 39.2 °F 73% 29.91 in 10.0 mi South 4.6 mph - N/A   Clear
12:55 AM 47.8 °F - 39.4 °F 72% 29.91 in 10.0 mi Calm Calm - N/A   Clear
1:15 AM 49.3 °F - 39.2 °F 68% 29.91 in 10.0 mi Calm Calm - N/A   Clear
1:55 AM 47.5 °F - 39.4 °F 73% 29.90 in 10.0 mi South 3.5 mph - N/A   Clear
2:15 AM 45.3 °F 44.0 °F 39.4 °F 80% 29.90 in 10.0 mi South 3.5 mph - N/A   Clear
2:35 AM 47.8 °F - 40.1 °F 75% 29.89 in 10.0 mi South 5.8 mph - N/A   Clear
2:55 AM 49.8 °F - 41.0 °F 72% 29.89 in 10.0 mi South 3.5 mph - N/A   Clear
3:15 AM 49.3 °F - 40.5 °F 72% 29.88 in 10.0 mi South 4.6 mph - N/A   Clear
3:35 AM 47.5 °F - 40.5 °F 77% 29.87 in 10.0 mi Calm Calm - N/A   Clear
3:55 AM 46.6 °F - 40.3 °F 79% 29.85 in 10.0 mi Calm Calm - N/A   Clear
4:15 AM 45.7 °F - 40.1 °F 81% 29.84 in 10.0 mi Calm Calm - N/A   Clear
4:35 AM 45.0 °F - 40.1 °F 83% 29.83 in 10.0 mi Calm Calm - N/A   Clear
4:55 AM 44.6 °F 43.1 °F 39.4 °F 82% 29.84 in 10.0 mi SSE 3.5 mph - N/A   Clear
5:15 AM 45.5 °F 42.5 °F 41.0 °F 84% 29.86 in 10.0 mi South 5.8 mph - N/A   Clear
5:35 AM 49.3 °F - 42.8 °F 78% 29.88 in 10.0 mi South 5.8 mph - N/A   Clear
5:55 AM 50.9 °F - 43.3 °F 75% 29.87 in 10.0 mi South 5.8 mph - N/A   Clear
6:15 AM 50.4 °F - 43.2 °F 76% 29.89 in 10.0 mi South 4.6 mph - N/A   Clear
6:35 AM 51.8 °F - 44.2 °F 75% 29.88 in 10.0 mi South 3.5 mph - N/A   Clear
6:55 AM 52.5 °F - 44.4 °F 74% 29.87 in 10.0 mi Calm Calm - N/A   Clear
7:15 AM 50.7 °F - 44.2 °F 78% 29.88 in 10.0 mi Calm Calm - N/A   Clear
7:35 AM 49.1 °F - 43.9 °F 82% 29.88 in 10.0 mi Calm Calm - N/A   Clear
7:55 AM 51.6 °F - 45.9 °F 81% 29.89 in 10.0 mi Calm Calm - N/A   Clear
8:15 AM 54.3 °F - 46.9 °F 76% 29.89 in 10.0 mi Calm Calm - N/A   Clear
8:35 AM 57.6 °F - 46.4 °F 66% 29.89 in 10.0 mi Calm Calm - N/A   Clear
8:55 AM 58.6 °F - 47.7 °F 67% 29.89 in 10.0 mi Calm Calm - N/A   Scattered Clouds
9:15 AM 60.4 °F - 47.7 °F 63% 29.88 in 10.0 mi Calm Calm - N/A   Mostly Cloudy
9:35 AM 61.7 °F - 48.4 °F 62% 29.88 in 10.0 mi Calm Calm - N/A   Mostly Cloudy
9:55 AM 64.2 °F - 48.7 °F 57% 29.88 in 10.0 mi Calm Calm - N/A   Overcast
10:15 AM 66.0 °F - 49.1 °F 54% 29.87 in 10.0 mi WSW 4.6 mph - N/A   Mostly Cloudy
10:35 AM 68.9 °F - 49.3 °F 50% 29.87 in 10.0 mi SSW 6.9 mph - N/A   Scattered Clouds
10:55 AM 70.3 °F - 48.9 °F 47% 29.86 in 10.0 mi Calm Calm - N/A   Clear
11:15 AM 71.8 °F - 48.2 °F 43% 29.85 in 10.0 mi Calm Calm - N/A   Clear
11:55 AM 76.1 °F - 46.9 °F 36% 29.84 in 10.0 mi NW 4.6 mph - N/A   Clear
12:15 PM 77.9 °F - 46.8 °F 33% 29.85 in 10.0 mi West 3.5 mph - N/A   Clear
12:35 PM 79.7 °F - 47.3 °F 32% 29.85 in 10.0 mi SW 8.1 mph - N/A   Clear
12:55 PM 79.9 °F - 47.7 °F 32% 29.84 in 10.0 mi West 8.1 mph - N/A   Clear
1:15 PM 80.6 °F - 48.0 °F 32% 29.83 in 10.0 mi WSW 8.1 mph - N/A   Clear
2:15 PM 82.0 °F - 48.6 °F 31% 29.82 in 10.0 mi SW 6.9 mph - N/A   Scattered Clouds
2:35 PM 82.0 °F - 49.3 °F 32% 29.81 in 10.0 mi SW 12.7 mph 16.1 mph N/A   Clear
2:55 PM 82.8 °F - 49.1 °F 31% 29.81 in 10.0 mi WSW 8.1 mph - N/A   Clear
3:15 PM 82.6 °F - 48.9 °F 31% 29.81 in 10.0 mi West 10.4 mph - N/A   Scattered Clouds
3:35 PM 82.9 °F - 48.7 °F 30% 29.81 in 10.0 mi West 12.7 mph 16.1 mph N/A   Scattered Clouds
3:55 PM 81.5 °F - 50.2 °F 34% 29.81 in 10.0 mi WSW 5.8 mph - N/A   Scattered Clouds
4:15 PM 82.0 °F - 50.0 °F 33% 29.81 in 10.0 mi SW 8.1 mph - N/A   Scattered Clouds
4:35 PM 82.0 °F - 48.9 °F 31% 29.81 in 10.0 mi SSW 6.9 mph - N/A   Clear
4:55 PM 81.5 °F - 50.2 °F 34% 29.82 in 10.0 mi SW 4.6 mph - N/A   Clear
5:15 PM 80.4 °F - 51.8 °F 37% 29.82 in 10.0 mi SW 6.9 mph - N/A   Clear
5:35 PM 79.9 °F - 52.7 °F 39% 29.82 in 10.0 mi SSW 6.9 mph - N/A   Clear
5:55 PM 78.6 °F - 54.5 °F 43% 29.83 in 10.0 mi SSW 5.8 mph - N/A   Clear
6:15 PM 76.8 °F - 55.6 °F 48% 29.83 in 10.0 mi SSW 5.8 mph - N/A   Clear
6:35 PM 74.7 °F - 55.8 °F 52% 29.84 in 10.0 mi SSW 5.8 mph - N/A   Clear
6:55 PM 71.2 °F - 55.9 °F 58% 29.84 in 10.0 mi South 4.6 mph - N/A   Clear
7:15 PM 67.3 °F - 55.8 °F 66% 29.84 in 7.0 mi South 3.5 mph - N/A   Clear
7:35 PM 65.5 °F - 55.6 °F 70% 29.84 in 10.0 mi Calm Calm - N/A   Clear
7:55 PM 62.4 °F - 54.7 °F 76% 29.84 in 10.0 mi South 5.8 mph - N/A   Clear
8:15 PM 60.3 °F - 54.5 °F 81% 29.84 in 10.0 mi South 3.5 mph - N/A   Clear
8:35 PM 59.7 °F - 54.1 °F 82% 29.84 in 10.0 mi Calm Calm - N/A   Clear
8:55 PM 58.1 °F - 53.6 °F 85% 29.84 in 10.0 mi South 4.6 mph - N/A   Clear
9:15 PM 57.0 °F - 53.2 °F 87% 29.85 in 10.0 mi South 5.8 mph - N/A   Clear
9:35 PM 57.9 °F - 54.0 °F 87% 29.86 in 10.0 mi South 4.6 mph - N/A   Clear
9:55 PM 59.0 °F - 55.6 °F 88% 29.86 in 10.0 mi South 5.8 mph - N/A   Clear
10:15 PM 60.6 °F - 57.0 °F 88% 29.87 in 10.0 mi South 5.8 mph - N/A   Clear
10:35 PM 62.8 °F - 59.0 °F 87% 29.88 in 7.0 mi South 5.8 mph - N/A   Clear
10:55 PM 63.5 °F - 59.0 °F 85% 29.88 in 7.0 mi Calm Calm - N/A   Clear
11:35 PM 59.9 °F - 56.5 °F 88% 29.88 in 5.0 mi Calm Calm - N/A   Clear
11:55 PM 57.4 °F - 54.3 °F 90% 29.88 in 3.0 mi Calm Calm - N/A   Clear